GFSNE_850_temp_000.txt.gz
Temp
15 14 14 16 16 16 15 14 15 16 16 17 16 15 14 14 13 12 12 12 14 14 14 14 14 14 14 15 15 16 16 16 16 16 16 16 16 17
15 15 14 15 16 16 15 15 15 15 15 16 15 15 14 13 13 12 12 13 14 14 14 14 14 14 14 14 14 15 16 16 17 16 16 16 16 17
14 14 14 14 15 16 16 15 15 15 14 15 15 15 14 13 13 12 12 12 12 12 12 13 14 14 14 14 14 14 15 16 16 17 16 16 16 16
14 14 14 15 15 14 15 15 15 14 14 13 13 13 14 13 13 12 12 13 12 12 12 12 12 13 14 14 14 14 14 14 15 16 16 16 16 16
14 14 15 15 14 15 14 14 15 15 14 14 13 14 14 13 14 13 13 13 12 13 13 12 12 11 12 12 12 12 13 14 14 14 15 16 16 16
14 14 14 14 14 14 14 14 14 13 14 13 14 14 14 14 14 13 13 14 14 14 13 12 12 12 12 12 11 11 11 12 12 13 14 15 16 16
14 14 14 14 15 15 14 14 14 14 14 14 14 14 14 13 13 13 13 13 13 13 13 13 13 13 13 12 12 12 12 11 11 11 12 13 15 16
14 14 14 15 15 15 14 14 14 13 13 12 13 13 12 11 12 12 12 11 12 12 12 12 12 12 12 12 12 11 11 11 11 11 11 11 13 15
14 15 14 14 13 13 14 14 14 14 13 12 11 11 11 11 11 10 10 10 10 11 10 10 11 12 12 12 11 10 10 10 10 10 11 11 12 13
15 15 15 14 13 13 13 13 13 13 11 11 10 10 10 10 10 9 9 9 9 9 10 11 12 12 11 10 10 10 11 11 11 10 11 12 12 12
15 15 15 15 13 13 13 13 12 12 11 11 10 11 11 11 11 10 9 9 9 8 9 11 11 11 9 10 11 9 10 9 9 10 10 12 12 12
16 15 14 14 14 13 13 12 11 11 10 10 9 9 9 9 9 8 8 8 8 10 11 10 9 8 8 8 8 8 9 10 10 10 11 11 12 12
15 14 13 14 13 13 12 12 10 11 11 10 10 10 10 10 10 10 9 8 9 9 9 8 8 8 7 7 8 8 9 10 11 11 11 12 12 12
14 13 12 13 12 12 11 11 10 10 9 10 10 10 10 10 10 9 8 8 8 7 8 9 7 7 7 7 7 9 10 11 11 12 12 13 13 13
13 13 13 12 11 11 10 10 10 9 9 9 10 10 9 9 8 8 9 8 8 8 8 8 8 7 7 7 8 9 10 12 12 13 13 12 14 14
14 13 12 11 10 9 9 9 8 8 8 8 8 8 8 8 8 8 8 8 9 9 8 8 7 7 7 8 9 10 10 11 12 13 13 13 14 14
12 10 10 10 10 9 9 8 8 8 8 8 7 7 8 8 8 8 8 8 8 7 8 8 8 9 8 8 9 8 10 11 12 12 13 13 14 14
12 11 11 10 10 10 9 9 8 7 7 6 6 7 7 7 7 7 8 8 7 8 8 9 8 8 8 8 8 8 9 10 12 12 13 13 14 16
11 11 10 10 9 9 8 8 8 7 6 6 6 6 6 7 7 7 8 8 8 7 8 8 7 7 7 7 7 7 7 9 11 12 12 13 13 15
10 10 10 9 8 8 7 7 7 6 6 6 6 6 6 6 7 7 7 7 7 7 7 7 8 7 7 7 6 7 7 8 9 11 12 12 13 13
10 9 9 8 8 7 6 6 5 5 5 5 6 6 6 6 7 7 7 7 7 7 6 7 7 7 7 8 7 6 7 7 7 9 12 12 13 13
9 8 8 7 6 6 5 5 5 5 5 6 6 6 6 6 6 7 7 8 8 7 7 7 6 7 7 7 7 7 6 7 7 7 8 11 12 13
8 7 7 6 5 5 5 5 5 5 5 5 5 5 5 6 6 7 7 8 8 7 6 7 6 7 7 7 7 7 6 5 6 6 8 10 11 13

GFSNE_850_temp_003.txt.gz
Temp
15 15 15 16 17 17 16 16 15 16 17 17 17 16 16 15 15 14 13 13 13 13 14 14 14 14 14 14 14 15 16 16 17 17 17 18 17 17
15 16 15 16 16 16 16 16 16 16 16 16 16 16 15 15 15 14 13 13 13 13 13 13 13 13 14 14 14 15 15 15 16 17 17 17 18 18
15 15 15 15 15 16 17 17 16 16 16 16 15 15 14 14 14 14 14 13 13 14 13 13 13 13 13 13 14 14 14 15 15 16 17 17 17 18
15 15 15 16 15 15 16 16 15 16 15 15 14 14 14 14 14 14 13 14 14 14 14 14 13 13 13 13 13 13 13 13 14 15 15 15 17 17
15 15 15 15 15 15 15 15 15 15 15 15 15 15 14 14 14 14 14 14 13 14 14 14 13 13 13 13 13 13 12 13 13 13 13 14 14 15
15 15 15 15 15 15 15 14 15 14 15 15 15 14 14 14 14 15 14 13 13 14 14 14 14 13 13 13 13 13 12 13 13 12 12 13 13 13
15 15 15 15 14 14 14 14 14 14 15 15 15 15 14 15 14 13 13 13 13 14 14 13 13 13 13 13 13 13 13 13 12 12 12 12 12 13
14 14 15 15 15 15 15 15 13 12 13 13 13 13 13 12 12 12 12 13 12 13 12 12 12 12 12 12 13 13 13 12 12 12 12 12 11 12
14 15 15 14 14 15 15 15 14 13 13 13 13 12 12 12 12 11 11 11 11 11 10 10 11 11 11 12 13 13 12 12 11 10 10 10 10 10
14 14 14 14 14 14 14 13 14 14 13 12 12 12 11 11 11 11 10 10 10 11 11 10 11 11 12 12 12 11 11 11 10 10 10 10 10 11
14 14 14 15 15 14 14 14 14 13 12 12 12 12 11 11 10 9 9 10 11 10 10 10 11 11 11 11 10 10 10 10 10 9 9 10 10 10
15 14 15 15 15 14 14 14 13 12 12 12 11 10 11 10 10 10 10 9 10 10 11 10 10 10 9 9 9 9 9 10 9 9 10 10 10 10
14 14 14 14 14 14 14 13 12 12 12 11 10 11 12 11 12 11 10 10 9 9 9 9 8 8 8 8 8 10 8 9 9 10 11 11 11 11
14 14 13 13 14 13 13 12 12 11 11 10 11 11 11 11 11 10 10 9 9 8 9 9 8 8 8 8 8 9 9 9 10 11 11 12 12 12
14 13 13 13 13 12 12 11 10 10 9 10 11 11 11 10 9 9 9 9 9 9 9 8 8 8 8 8 7 8 8 9 9 11 11 12 13 13
13 13 12 12 12 11 10 10 9 8 9 9 9 9 9 9 9 9 9 9 9 9 8 8 8 8 8 8 8 8 8 8 8 9 11 13 13 13
12 12 12 11 11 11 10 10 9 9 9 9 9 9 8 8 8 8 8 8 9 9 8 8 8 8 8 7 7 8 7 7 8 9 11 12 12 13
12 11 13 13 12 12 11 11 10 10 9 8 8 8 8 8 8 8 8 8 9 9 9 8 7 7 9 9 8 7 6 6 7 9 10 11 12 12
12 13 13 12 12 11 11 10 10 9 8 7 8 7 7 8 8 8 8 8 9 8 8 8 7 7 7 6 7 6 6 6 7 9 10 11 11 12
12 12 12 12 11 10 10 9 9 8 8 8 7 7 7 8 8 8 8 8 8 9 8 7 7 7 6 6 6 6 6 5 6 7 8 11 12 12
13 12 11 11 10 10 9 8 7 7 7 6 6 7 7 7 7 8 8 8 9 9 9 8 7 7 7 7 7 7 6 6 6 5 6 10 11 11
12 11 11 10 9 8 8 7 7 7 7 7 7 7 7 7 7 8 8 9 9 9 8 7 7 7 7 7 6 6 7 6 6 6 5 5 5 9
11 10 10 9 8 7 7 6 7 7 7 7 7 7 6 7 7 7 8 9 9 9 9 8 7 7 6 7 6 6 7 6 5 5 6 5 5 7

GFSNE_850_temp_006.txt.gz
Temp
15 16 16 16 17 17 17 16 16 16 16 17 17 16 16 15 15 15 15 15 15 14 14 14 14 14 14 14 14 14 15 15 15 16 16 17 17 17
15 15 16 16 16 16 17 17 17 16 16 16 16 16 15 15 15 15 14 14 15 14 14 14 13 14 14 14 14 14 14 14 15 15 16 16 16 17
16 16 16 16 16 16 16 16 17 16 16 16 16 16 15 15 15 14 14 14 14 14 14 14 14 14 14 13 14 14 14 14 14 15 15 15 15 16
16 16 16 16 16 16 16 16 16 16 15 15 15 15 15 14 14 14 14 14 14 14 14 14 14 14 14 13 13 13 13 14 13 13 13 14 15 15
16 16 16 15 15 15 15 15 15 15 15 14 14 15 15 15 15 15 15 14 14 14 14 14 14 14 13 13 13 13 13 13 13 13 13 13 13 13
16 16 15 15 15 15 15 15 15 15 14 14 13 13 14 15 15 14 14 14 13 13 13 14 14 14 14 13 13 13 13 13 13 13 13 12 13 13
15 16 15 15 15 16 15 15 15 15 15 14 14 14 14 14 14 14 14 14 14 13 13 13 13 13 13 13 13 13 13 13 13 13 13 13 13 13
16 16 15 15 15 15 15 15 15 15 15 14 14 14 14 13 13 13 12 11 11 12 12 12 13 12 12 12 12 12 12 12 12 13 12 12 12 12
16 16 15 15 15 15 15 15 15 15 14 14 14 14 13 13 12 12 12 12 11 12 11 11 11 10 10 11 11 12 12 12 12 12 12 12 12 12
16 15 15 16 15 15 15 15 15 15 14 13 13 13 13 12 12 11 11 11 11 11 11 11 11 11 11 11 11 11 12 11 11 11 11 10 9 10
15 15 15 15 16 15 14 14 14 14 14 13 12 12 12 11 11 11 11 11 10 10 10 10 10 10 10 11 11 11 10 10 10 10 10 10 9 10
14 15 15 14 14 14 14 14 14 14 13 13 12 12 12 12 12 11 11 11 10 9 10 10 9 9 9 9 9 9 9 10 10 10 10 10 10 9
15 15 14 15 14 14 14 14 13 13 13 12 12 12 11 11 12 11 11 10 9 9 9 9 9 9 8 8 8 9 9 10 9 10 9 9 9 10
15 15 14 14 14 14 13 13 13 12 12 11 11 10 11 11 11 11 11 10 10 9 9 9 9 8 8 8 9 9 9 8 8 8 8 8 10 10
14 15 14 14 14 13 13 12 12 11 11 10 10 10 10 10 10 9 9 9 9 9 9 9 9 8 8 8 8 8 8 8 7 7 7 8 9 10
15 14 14 14 13 13 12 12 12 11 10 9 9 10 9 9 9 9 8 8 8 8 9 9 9 8 8 8 8 8 7 6 7 6 7 8 10 11
15 14 13 13 13 12 12 12 11 10 10 9 9 9 9 8 8 8 8 8 8 8 9 9 9 8 8 8 8 8 7 6 6 6 6 7 10 11
13 12 12 12 13 13 12 12 11 10 10 10 9 9 8 8 8 8 8 8 8 8 8 8 8 8 8 9 8 7 6 6 5 6 6 6 9 11
13 13 13 13 13 12 12 11 11 10 10 9 8 8 8 8 8 8 8 8 8 8 9 9 9 8 7 7 8 7 6 5 5 5 5 5 8 12
13 13 13 13 12 11 11 10 10 9 9 8 8 7 7 8 8 8 8 8 8 9 9 9 8 7 6 6 6 8 7 5 4 4 4 6 8 10
13 13 12 12 11 11 10 9 9 8 7 7 7 7 7 7 7 7 8 8 9 9 9 9 8 7 7 7 7 7 7 6 4 4 4 4 5 10
13 13 12 11 10 10 9 8 8 7 7 7 7 7 7 7 7 7 8 8 9 9 9 9 8 7 7 6 6 6 6 6 6 4 3 3 3 3
12 11 11 10 10 9 8 8 7 7 8 8 7 7 7 7 7 7 8 8 9 9 9 9 8 8 7 7 6 6 6 6 4 3 3 4 3 4

GFSNE_850_temp_009.txt.gz
Temp
18 18 17 17 17 17 17 17 17 16 16 17 16 16 16 15 15 15 15 15 15 15 14 14 14 14 14 14 14 14 14 14 15 15 15 15 16 16
17 17 17 17 16 16 17 16 17 16 16 16 16 16 16 15 15 15 15 15 15 15 15 14 14 14 14 14 14 13 13 13 14 14 14 15 15 15
16 17 16 17 16 16 16 16 16 16 16 16 16 16 16 16 15 15 15 15 14 14 14 14 14 14 14 13 14 13 13 13 13 13 13 13 14 14
17 16 16 16 16 16 16 16 16 16 15 15 15 16 15 15 15 15 15 14 14 14 14 14 14 14 14 14 14 13 13 13 13 13 13 12 13 13
17 16 16 16 16 17 16 16 16 16 15 15 15 15 15 15 15 14 14 14 14 14 13 13 14 14 13 13 13 13 13 13 13 13 12 12 13 12
16 16 16 16 16 16 16 16 16 16 15 15 15 15 15 15 14 14 14 14 14 14 14 13 13 13 13 13 13 13 13 13 13 12 12 12 12 12
16 16 16 15 16 16 15 16 16 16 15 15 15 14 14 14 14 14 13 13 13 14 13 13 13 13 13 13 13 13 12 12 12 12 12 12 12 12
17 16 15 15 15 15 15 15 15 15 15 15 14 14 14 14 14 13 13 13 12 13 12 11 12 12 12 12 12 12 11 11 11 11 12 12 12 12
16 16 15 15 15 15 15 15 15 15 14 14 14 13 13 14 13 13 12 12 12 12 11 11 12 10 10 10 10 10 11 11 11 11 11 12 12 12
16 15 15 15 15 15 15 15 14 14 14 14 13 13 13 13 12 12 12 12 11 11 11 10 10 10 10 10 10 10 10 11 11 11 11 11 11 11
15 15 15 15 15 15 14 14 14 14 14 14 14 13 13 12 12 11 11 11 11 11 11 10 9 10 9 9 10 10 10 10 11 11 11 11 11 11
15 15 14 14 14 14 14 14 14 14 13 13 13 12 12 12 11 11 11 11 10 10 10 9 9 9 9 9 9 10 10 11 10 10 10 10 9 9
14 14 14 15 14 14 14 14 14 13 13 13 12 12 12 11 11 11 11 11 10 9 9 9 9 9 9 8 8 10 9 10 10 9 9 9 8 8
13 14 14 15 14 14 14 14 13 12 12 12 11 11 10 10 10 10 10 10 9 9 9 9 9 9 9 8 8 9 9 9 9 9 8 7 6 7
14 14 14 14 14 14 14 13 12 12 12 11 10 9 9 10 10 10 10 9 9 8 8 8 9 9 8 8 8 9 8 9 9 8 7 6 5 6
15 14 14 14 13 13 13 13 12 12 12 11 10 9 9 9 9 9 8 8 8 8 8 8 8 8 8 9 8 9 9 8 8 6 5 5 5 5
14 14 14 14 13 13 12 12 12 12 11 10 9 9 9 9 8 8 8 8 8 8 8 8 8 8 9 8 9 9 8 7 7 6 5 5 5 5
15 14 14 13 13 12 12 12 12 11 11 10 9 9 9 8 8 7 8 8 8 8 8 9 8 9 8 9 9 8 7 6 6 5 4 4 4 5
13 13 13 13 12 12 12 11 11 10 10 9 9 9 8 8 7 7 7 7 8 8 9 9 9 8 8 7 8 8 6 6 5 4 4 3 3 5
13 13 13 12 12 12 12 11 11 10 10 9 9 8 8 7 7 7 7 7 8 8 9 9 8 9 8 7 6 7 7 5 4 3 3 3 3 5
13 13 13 12 12 12 11 11 10 9 9 8 8 7 7 7 7 7 7 7 8 8 9 9 8 8 8 7 7 7 6 6 4 3 2 2 2 3
12 12 12 12 12 11 11 10 9 8 8 7 7 7 7 7 7 7 7 7 8 8 8 8 8 8 7 7 7 6 6 6 5 3 1 1 1 1
12 12 11 11 11 11 10 9 8 8 8 7 7 7 7 6 6 7 7 7 8 8 8 8 9 8 7 7 6 6 5 5 4 1 1 1 2 2